Temperature
17 17 17 17 17 17 17 16 16 15 14 14 14 14 14 14 14 14 14 14 13 13 13 13 13 13 13 13 13 13 12 12 12 12 12 12 12 12
17 17 17 17 16 16 16 16 16 16 14 14 14 13 13 13 13 13 13 13 13 13 13 13 12 12 12 12 12 12 12 12 12 12 12 12 12 11
16 16 16 16 16 16 16 15 15 15 15 14 13 13 13 13 13 13 13 13 12 12 12 12 12 12 12 12 12 12 12 11 11 11 11 11 11 11
16 16 16 16 16 16 15 15 15 15 15 14 13 13 13 13 13 12 12 12 12 12 12 12 12 11 11 11 11 11 11 11 11 11 10 10 10 10
16 16 16 15 15 15 15 15 15 15 14 14 13 13 12 12 12 12 12 12 12 11 11 11 11 11 11 11 11 11 11 10 10 10 10 10 10 10
15 15 15 15 15 15 15 14 14 14 14 13 13 12 12 12 12 12 12 11 11 11 11 11 11 11 11 11 11 10 10 10 10 10 9 9 9 9
15 15 15 15 15 14 14 14 14 14 13 13 12 12 12 12 12 12 11 11 11 11 11 11 11 11 10 10 10 10 10 10 9 9 9 9 9 9
15 14 14 14 14 14 14 14 14 14 13 13 12 12 12 12 12 11 11 11 11 11 11 10 10 10 10 10 10 10 9 9 9 9 9 8 8 8
14 14 14 14 14 13 13 13 13 13 13 13 12 12 12 12 12 11 11 11 11 11 10 10 10 10 10 10 9 9 9 9 9 9 8 8 8 8
14 14 14 14 13 13 13 13 13 13 12 12 12 12 12 11 11 11 11 11 11 10 10 10 10 10 10 10 9 9 9 9 8 8 8 8 8 8
14 14 14 13 13 13 13 13 12 12 12 12 12 12 11 11 11 11 11 11 10 10 10 10 9 9 9 9 9 9 9 8 8 8 8 8 7 7
14 14 13 13 13 13 12 12 12 12 12 12 11 11 11 11 11 11 10 10 10 10 10 10 9 9 9 9 9 9 9 8 8 8 8 7 7 7
13 13 13 13 12 12 12 12 12 12 11 11 11 11 11 11 10 10 10 10 10 10 10 9 9 9 9 9 9 9 8 8 8 8 8 7 7 7
13 13 13 12 12 12 12 12 11 11 11 11 11 11 10 10 10 10 10 10 10 10 10 9 9 9 9 9 9 8 8 8 8 8 8 7 7 7
13 13 12 12 12 11 11 11 11 11 11 11 11 10 10 10 10 10 10 10 10 9 9 9 9 9 9 9 8 8 8 8 8 8 7 7 7 7
13 12 12 12 11 11 11 11 11 11 10 10 10 10 10 10 10 10 9 9 9 9 9 9 9 9 9 8 8 8 8 8 8 7 7 7 7 7
12 12 12 11 11 11 11 11 10 10 10 10 10 10 10 10 10 9 9 9 9 9 9 9 9 8 8 8 8 8 8 8 7 7 7 7 6 6
12 12 11 11 11 11 10 10 10 10 10 10 10 10 9 9 9 9 9 9 9 9 9 8 8 8 8 8 8 8 7 7 7 7 7 6 6 6
11 11 11 11 10 10 10 10 10 10 10 9 9 9 9 9 9 9 9 9 9 9 8 8 8 8 8 7 7 7 7 7 7 7 6 6 6 6
11 11 11 10 10 10 10 10 10 9 9 9 9 9 9 9 9 9 9 9 9 8 8 8 8 8 8 7 7 7 7 7 7 6 6 6 6 6
11 11 10 10 10 10 10 10 9 9 9 9 9 9 9 9 9 9 8 8 8 8 8 8 8 8 7 7 7 7 7 7 7 6 6 6 6 6
11 10 10 10 10 10 10 9 9 9 9 9 9 8 8 8 8 8 8 8 8 8 8 8 7 7 7 7 7 7 7 7 7 6 6 6 6 6
11 10 10 10 10 10 10 9 9 9 9 9 8 8 8 8 8 8 8 8 8 8 7 7 7 7 7 7 7 7 6 6 6 6 6 6 6 6
Wind_Speed
1 1 1 1 1 0 1 2 2 2 2 2 2 3 6 9 10 11 11 13 12 11 11 11 11 11 11 11 11 11 11 11 11 11 10 10 9 10
1 2 2 2 1 1 1 1 1 2 2 2 2 3 6 8 10 10 11 13 12 11 11 11 12 12 12 12 12 12 12 12 12 12 12 11 11 11
3 3 3 2 2 2 2 2 3 3 5 3 3 4 5 6 7 8 10 10 10 12 12 12 12 12 12 12 12 12 12 11 11 11 12 12 12 12
4 4 3 3 4 3 3 3 3 4 6 6 3 3 3 4 4 4 7 8 9 11 12 12 11 11 11 11 11 11 11 11 11 11 12 12 12 12
4 4 5 5 4 4 4 4 3 4 5 5 4 3 2 2 3 4 5 6 7 9 10 10 10 10 10 10 10 10 10 10 11 11 11 11 10 10
5 5 6 6 5 4 4 4 4 4 4 5 5 3 3 2 2 2 2 2 3 6 7 8 9 9 9 8 8 8 8 9 9 9 8 8 8 8
6 6 7 9 9 6 5 4 4 3 4 4 4 3 3 2 1 1 2 2 2 3 3 4 6 6 6 6 6 7 7 6 6 6 5 5 6 6
5 4 6 8 9 9 10 8 5 4 4 3 3 3 2 2 1 1 2 2 1 2 2 2 4 4 6 6 6 6 5 5 4 3 3 3 3 3
4 4 4 6 6 5 6 6 8 8 5 3 3 2 2 1 1 1 1 1 1 2 1 1 2 3 5 6 8 8 7 6 4 3 2 1 0 0
5 5 5 5 6 5 5 6 6 6 5 4 3 3 2 1 0 1 1 1 1 2 2 1 1 2 3 6 9 9 8 7 6 5 4 4 3 3
6 7 6 7 7 7 5 5 5 4 7 8 7 6 6 4 2 1 0 1 1 1 1 0 0 1 1 3 7 10 9 8 7 6 5 5 5 4
6 7 10 8 7 6 4 4 4 3 3 3 3 3 4 4 3 2 1 1 1 0 0 0 0 0 1 2 4 7 7 8 8 7 7 7 7 6
5 5 5 6 6 5 4 3 2 1 0 1 2 2 2 2 2 3 3 1 1 1 1 1 1 1 1 1 2 4 6 5 6 7 8 9 9 7
4 5 4 5 4 4 3 2 2 2 0 1 2 2 2 1 1 2 1 2 1 1 1 1 1 1 1 2 2 2 3 5 5 5 6 8 9 10
5 6 5 3 1 1 1 1 2 1 0 1 1 1 1 1 1 1 1 1 0 0 1 1 1 1 1 2 2 1 1 2 2 2 2 3 4 5
5 4 3 2 1 0 0 0 1 2 2 2 2 1 1 1 0 0 1 1 0 0 1 2 2 1 2 2 1 2 1 1 1 1 1 2 3 4
4 3 2 2 2 2 2 1 0 1 2 1 1 1 1 1 1 1 1 1 1 0 0 1 3 3 2 2 2 2 1 2 1 1 2 3 3 4
4 2 2 2 2 2 2 1 1 1 1 1 1 1 1 1 1 1 1 1 1 1 0 1 1 1 2 2 2 2 2 2 2 2 2 3 3 3
3 2 2 2 2 2 1 1 1 1 1 1 1 1 1 1 1 1 1 2 2 2 1 1 1 1 3 4 3 3 3 2 2 2 3 3 4 3
3 2 2 2 2 1 1 1 1 1 0 1 1 1 1 2 1 1 1 2 2 2 2 1 1 1 2 3 3 4 5 3 3 3 4 3 3 4
3 2 2 2 2 2 1 1 1 1 0 1 1 1 2 2 2 2 2 2 2 2 3 2 2 3 2 2 3 3 3 7 6 4 4 4 4 4
3 3 2 2 2 2 2 1 1 0 0 1 1 1 1 2 2 3 3 2 2 3 3 3 2 2 2 3 4 4 4 4 7 11 11 9 4 4
3 2 2 2 2 2 2 1 1 0 0 1 1 1 2 2 2 2 3 3 3 3 4 3 2 2 3 4 4 4 5 5 4 3 5 11 14 16
Wind_Direction
8 25 22 10 49 28 143 160 163 153 111 91 82 76 92 97 102 97 94 100 100 98 96 92 88 83 80 77 75 72 69 65 64 63 63 61 57 52
52 50 49 35 36 35 54 89 110 130 117 90 99 103 94 97 98 99 95 98 101 102 97 93 90 87 83 80 78 75 72 70 69 70 68 64 60 59
58 64 60 54 51 49 59 72 79 102 114 102 92 91 95 99 102 103 102 103 102 108 105 100 95 92 89 86 83 80 77 74 72 71 70 66 62 58
52 53 51 63 59 59 63 68 84 96 121 125 115 104 101 108 123 129 115 106 105 113 114 111 105 100 96 91 88 84 80 77 74 72 69 67 64 61
54 58 57 58 54 63 68 75 89 97 108 124 126 121 111 111 107 100 102 113 115 117 115 116 114 108 103 99 95 91 88 84 81 78 73 69 66 62
61 61 62 62 57 57 71 74 89 100 111 120 125 126 113 113 114 117 113 111 118 123 118 122 124 115 108 103 98 97 96 93 89 84 78 73 68 66
74 73 73 75 71 67 73 77 88 98 111 116 124 117 110 116 125 147 127 123 111 123 129 142 140 135 130 119 111 111 109 103 95 88 82 75 72 70
83 87 94 80 78 78 75 68 75 101 103 107 109 115 108 108 106 136 145 144 144 154 148 159 152 144 150 146 145 143 141 135 124 107 90 79 70 72
80 73 71 73 72 82 88 82 73 76 88 113 114 104 106 122 151 155 174 182 174 168 151 155 149 147 151 158 165 170 175 172 164 164 168 177 215 335
69 71 75 73 63 58 75 77 72 63 65 80 99 106 104 90 202 179 178 131 112 109 104 156 153 146 140 162 181 183 185 187 189 197 210 224 249 272
75 65 62 72 60 56 74 77 79 77 79 86 93 104 106 92 79 79 76 110 112 103 85 286 115 88 149 166 185 192 199 205 208 213 222 234 245 264
100 88 69 66 59 56 75 81 80 67 63 84 95 103 107 94 76 59 41 50 71 73 46 337 208 198 215 176 176 196 210 218 221 228 235 243 251 260
115 102 85 73 65 54 57 74 75 78 117 108 113 116 113 102 85 59 49 47 52 21 24 1 316 289 266 250 195 195 200 209 219 233 237 243 250 249
100 105 106 92 70 52 51 33 11 1 97 102 97 102 109 113 122 109 76 51 79 122 64 37 327 329 326 310 290 219 209 210 201 210 221 239 246 251
94 108 121 128 110 87 88 6 340 319 81 78 82 86 83 95 117 143 155 144 109 96 44 293 303 314 307 296 292 284 261 238 212 208 214 222 231 233
114 126 148 189 201 152 97 96 36 35 47 51 49 65 73 81 94 153 162 197 189 217 224 271 291 286 292 294 294 297 292 282 260 229 234 252 249 237
130 150 161 150 136 128 120 108 77 68 66 65 61 61 58 47 18 16 342 320 311 299 294 268 252 251 266 289 296 285 291 293 284 261 273 281 270 262
129 145 145 140 135 134 139 132 96 37 34 39 50 46 23 6 10 1 326 311 316 329 334 315 327 305 299 301 289 282 287 287 295 292 299 295 288 278
140 157 164 146 138 135 124 116 108 70 44 5 0 4 359 335 329 324 315 315 320 320 309 309 320 309 308 304 302 290 285 292 299 297 290 287 284 277
188 179 167 142 130 120 110 105 98 88 57 332 335 348 337 317 309 304 309 318 312 305 299 293 294 297 293 296 295 290 267 264 280 280 286 285 282 280
183 171 164 147 140 141 131 110 102 96 56 340 338 340 327 318 319 320 317 310 299 299 302 300 264 249 255 273 285 282 263 243 246 251 265 273 277 275
189 180 173 157 153 144 134 128 131 102 61 331 327 317 313 318 318 323 321 318 305 299 303 303 272 261 280 281 285 287 283 276 264 262 259 259 262 267
198 187 168 165 162 137 132 145 147 53 10 308 319 321 324 319 311 312 307 308 312 314 308 302 301 291 290 291 296 296 294 295 293 278 269 263 260 259
Height
1539 1539 1539 1540 1540 1540 1540 1540 1541 1540 1542 1543 1543 1543 1543 1543 1543 1543 1544 1544 1544 1544 1543 1543 1543 1542 1542 1542 1542 1542 1541 1541 1540 1540 1539 1539 1538 1538
1539 1539 1538 1538 1539 1539 1539 1539 1539 1539 1539 1541 1542 1543 1543 1543 1543 1544 1544 1544 1544 1543 1543 1543 1542 1542 1542 1541 1541 1541 1541 1540 1540 1539 1538 1537 1537 1536
1538 1538 1538 1538 1538 1538 1538 1538 1538 1538 1538 1541 1542 1543 1543 1543 1544 1544 1544 1543 1543 1543 1543 1543 1542 1542 1542 1541 1541 1541 1541 1540 1539 1539 1538 1537 1536 1536
1538 1538 1538 1537 1537 1537 1537 1538 1538 1538 1539 1540 1541 1543 1543 1544 1544 1544 1544 1543 1543 1543 1543 1543 1543 1543 1542 1542 1541 1541 1541 1540 1539 1539 1538 1537 1536 1535
1539 1538 1538 1538 1538 1537 1537 1538 1538 1539 1539 1540 1541 1542 1543 1544 1544 1544 1544 1544 1544 1544 1544 1544 1543 1543 1542 1542 1542 1541 1541 1540 1540 1539 1538 1537 1536 1535
1539 1539 1538 1538 1538 1538 1538 1538 1538 1539 1539 1540 1541 1542 1543 1544 1544 1544 1544 1545 1544 1545 1544 1544 1544 1544 1543 1543 1542 1542 1541 1541 1540 1539 1538 1537 1536 1535
1540 1539 1539 1539 1539 1539 1538 1538 1538 1539 1540 1540 1541 1542 1543 1543 1544 1544 1544 1545 1545 1545 1545 1544 1544 1544 1543 1543 1542 1542 1542 1541 1540 1539 1539 1538 1536 1535
1540 1540 1540 1540 1539 1539 1539 1539 1540 1540 1540 1540 1541 1541 1542 1543 1543 1544 1544 1544 1544 1545 1544 1544 1544 1543 1543 1543 1543 1542 1542 1541 1540 1539 1539 1538 1537 1535
1541 1541 1541 1540 1540 1539 1540 1540 1540 1540 1541 1541 1541 1541 1541 1542 1542 1543 1543 1544 1544 1544 1544 1544 1544 1543 1543 1542 1542 1542 1541 1541 1540 1539 1538 1537 1536 1535
1541 1541 1541 1540 1540 1540 1540 1540 1540 1541 1541 1541 1541 1541 1542 1542 1542 1543 1543 1543 1543 1543 1544 1543 1543 1543 1542 1542 1542 1541 1541 1540 1539 1538 1537 1536 1535 1534
1541 1541 1541 1541 1541 1541 1541 1541 1541 1541 1541 1541 1541 1541 1541 1541 1541 1542 1541 1541 1542 1542 1542 1542 1542 1542 1541 1541 1541 1540 1540 1539 1538 1537 1536 1535 1534 1533
1541 1541 1541 1541 1541 1541 1541 1541 1541 1541 1542 1542 1542 1542 1542 1541 1541 1541 1541 1541 1541 1541 1541 1541 1541 1540 1540 1540 1539 1539 1538 1538 1537 1536 1535 1534 1533 1531
1541 1541 1541 1541 1541 1541 1541 1541 1542 1542 1542 1542 1542 1542 1542 1542 1541 1541 1541 1541 1541 1540 1541 1541 1540 1540 1539 1538 1537 1537 1537 1536 1535 1534 1533 1532 1531 1529
1541 1541 1541 1541 1541 1542 1542 1542 1542 1542 1542 1542 1542 1542 1542 1542 1541 1541 1541 1541 1540 1540 1540 1540 1539 1538 1538 1537 1536 1535 1535 1534 1533 1532 1530 1529 1528 1527
1540 1541 1541 1542 1542 1542 1542 1542 1542 1542 1542 1542 1542 1542 1542 1542 1541 1541 1541 1540 1540 1539 1539 1539 1538 1537 1536 1535 1534 1533 1533 1532 1531 1530 1528 1527 1525 1524
1540 1541 1541 1542 1542 1542 1542 1542 1542 1542 1542 1542 1542 1542 1542 1542 1541 1540 1540 1539 1539 1538 1538 1537 1536 1536 1534 1534 1533 1532 1531 1530 1529 1528 1526 1524 1522 1521
1539 1540 1540 1541 1542 1543 1543 1542 1542 1542 1542 1542 1542 1542 1542 1541 1541 1540 1539 1539 1538 1537 1536 1535 1534 1534 1533 1532 1531 1529 1529 1528 1527 1525 1523 1521 1519 1518
1538 1539 1540 1541 1541 1542 1543 1542 1542 1542 1542 1542 1541 1541 1541 1540 1540 1539 1538 1538 1537 1536 1535 1534 1533 1531 1531 1530 1529 1527 1526 1525 1524 1522 1520 1518 1516 1515
1537 1538 1539 1540 1540 1541 1541 1541 1541 1541 1541 1541 1541 1540 1540 1539 1538 1538 1537 1536 1535 1534 1533 1532 1531 1530 1528 1527 1526 1526 1524 1522 1520 1519 1517 1515 1513 1511
1536 1537 1538 1539 1539 1540 1540 1540 1540 1540 1540 1540 1539 1539 1538 1538 1537 1536 1535 1534 1533 1532 1531 1530 1529 1528 1526 1525 1523 1522 1521 1519 1517 1515 1513 1511 1509 1507
1534 1535 1536 1537 1538 1538 1539 1539 1539 1539 1538 1538 1538 1538 1537 1536 1535 1535 1534 1532 1531 1530 1529 1528 1526 1525 1524 1522 1520 1518 1517 1516 1514 1511 1509 1507 1504 1502
1532 1534 1535 1536 1536 1536 1536 1537 1537 1537 1537 1537 1536 1536 1535 1535 1534 1533 1532 1530 1529 1528 1527 1525 1524 1522 1521 1519 1517 1515 1513 1512 1510 1508 1506 1504 1501 1498
1531 1532 1533 1534 1534 1534 1535 1535 1535 1535 1535 1535 1534 1534 1534 1533 1532 1531 1530 1528 1527 1526 1524 1523 1521 1519 1517 1516 1514 1512 1510 1508 1505 1503 1501 1499 1498 1495